Weather History for Monroe, NC

Change the Weather History Date:

Saturday, May 25, 2013

  Actual Average (KCLT) Record (KCLT)
Temperature  
Mean Temperature 60 °F 70 °F  
Max Temperature 75 °F 81 °F 95 °F (1953)
Min Temperature 44 °F 59 °F 41 °F (2013)
Degree Days  
Heating Degree Days 6 1  
Month to date heating degree days 49  
Since 1 July heating degree days 3381  
Cooling Degree Days 0 6  
Month to date cooling degree days 87  
Year to date cooling degree days 124  
Growing Degree Days 10 (Base 50)    
Moisture  
Dew Point 42 °F    
Average Humidity 54    
Maximum Humidity 90    
Minimum Humidity 27    
Precipitation  
Precipitation 0.00 in 0.11 in 2.24 in (1939)
Month to date precipitation 2.49  
Year to date precipitation 16.27  
Snow  
Snow 0.00 in 0.00 in 0.00 in ()
Month to date snowfall 0.0  
Since 1 July snowfall 4.3  
Snow Depth -    
Sea Level Pressure  
Sea Level Pressure 30.25 in    
Wind  
Wind Speed 4 mph (WNW)    
Max Wind Speed 10 mph    
Max Gust Speed 16 mph    
Visibility 10 miles    
Events      
T = Trace of Precipitation, MM = Missing Value Source: NWS Daily Summary

Daily Weather History Graph

Daily Weather History Graph

Search for Another Location

Airport:

Trip Planner

Search our weather history database for the weather conditions in past years. The results will help you decide how hot, cold, wet, or windy it might be!

Date:

Astronomy

May. 25, 2013 Rise Set
Actual Time 6:12 AM EDT 8:26 PM EDT
Civil Twilight 5:43 AM EDT 8:55 PM EDT
Nautical Twilight 5:08 AM EDT 9:31 PM EDT
Astronomical Twilight 4:30 AM EDT 10:09 PM EDT
Moon 9:13 PM EDT 6:37 AM EDT
Length of Visible Light 15h 12m
Length of Day
14h 14m
Full, 100% of the Moon is Illuminated
May 25
Full
May 31
Last Quarter
Jun 8
New
Jun 16
First Quarter
Jun 23
Full

Hourly Weather History & Observations

Time (EDT) Temp. Dew Point Humidity Pressure Visibility Wind Dir Wind Speed Gust Speed Precip Events Conditions
12:53 AM 54.0 °F 39.9 °F 59% 30.24 in 10.0 mi NNW 3.5 mph - N/A   Clear
1:53 AM 54.0 °F 39.0 °F 57% 30.23 in 10.0 mi NNE 4.6 mph - N/A   Clear
2:53 AM 50.0 °F 39.0 °F 66% 30.23 in 10.0 mi NE 4.6 mph - N/A   Clear
3:53 AM 46.9 °F 39.9 °F 77% 30.24 in 10.0 mi Calm Calm - N/A   Clear
4:53 AM 45.0 °F 41.0 °F 86% 30.25 in 10.0 mi Calm Calm - N/A   Clear
5:53 AM 44.1 °F 41.0 °F 89% 30.26 in 10.0 mi Calm Calm - N/A   Clear
6:53 AM 45.0 °F 42.1 °F 90% 30.28 in 10.0 mi Calm Calm - N/A   Clear
7:53 AM 52.0 °F 46.0 °F 80% 30.31 in 10.0 mi SW 4.6 mph - N/A   Clear
8:53 AM 60.1 °F 41.0 °F 49% 30.34 in 10.0 mi North 4.6 mph - N/A   Clear
9:53 AM 62.1 °F 37.0 °F 39% 30.34 in 10.0 mi NNW 9.2 mph - N/A   Clear
10:53 AM 64.0 °F 37.9 °F 38% 30.33 in 10.0 mi NE 5.8 mph - N/A   Clear
11:53 AM 68.0 °F 39.0 °F 35% 30.32 in 10.0 mi Variable 6.9 mph - N/A   Clear
12:53 PM 70.0 °F 39.0 °F 32% 30.30 in 10.0 mi Variable 6.9 mph - N/A   Clear
1:53 PM 72.0 °F 37.0 °F 28% 30.26 in 10.0 mi West 5.8 mph - N/A   Clear
2:53 PM 73.0 °F 39.0 °F 29% 30.23 in 10.0 mi WSW 8.1 mph - N/A   Clear
3:53 PM 75.0 °F 41.0 °F 29% 30.21 in 10.0 mi SW 10.4 mph - N/A   Clear
4:53 PM 75.9 °F 39.9 °F 27% 30.20 in 10.0 mi West 8.1 mph - N/A   Clear
5:53 PM 75.9 °F 41.0 °F 29% 30.19 in 10.0 mi West 8.1 mph 16.1 mph N/A   Clear
6:53 PM 75.0 °F 44.1 °F 33% 30.19 in 10.0 mi WSW 6.9 mph - N/A   Clear
7:53 PM 71.1 °F 46.9 °F 42% 30.19 in 10.0 mi SSW 3.5 mph - N/A   Clear
8:53 PM 64.0 °F 50.0 °F 60% 30.19 in 10.0 mi Calm Calm - N/A   Clear
9:53 PM 61.0 °F 50.0 °F 67% 30.20 in 10.0 mi Calm Calm - N/A   Clear
10:53 PM 59.0 °F 52.0 °F 78% 30.21 in 10.0 mi Calm Calm - N/A   Clear
11:53 PM 59.0 °F 48.9 °F 69% 30.19 in 10.0 mi Calm Calm - N/A   Clear